timestamp,wind_dir_avg,wind_spd_avg,wind_spd_max_dir,wind_spd_gust,battery_voltage,lat,long
2023-10-06 00:04:01+00:00,249.0,5.99,246.0,6.56,12.41,47.59359,-54.27349
2023-10-06 00:14:01+00:00,242.0,5.42,239.0,5.98,12.41,47.59359,-54.27349
2023-10-06 00:24:01+00:00,234.0,5.35,234.0,5.8,12.41,47.59359,-54.27349
2023-10-06 00:34:01+00:00,237.0,5.63,237.0,6.27,12.41,47.59359,-54.27349
2023-10-06 00:44:01+00:00,235.0,4.76,232.0,5.51,12.41,47.59359,-54.27349
2023-10-06 00:54:01+00:00,230.0,4.56,231.0,5.01,12.41,47.59359,-54.27349
2023-10-06 01:04:01+00:00,222.0,5.51,219.0,6.07,12.41,47.59359,-54.27349
2023-10-06 01:14:00+00:00,230.0,4.82,230.0,5.59,12.33,47.59359,-54.27349
2023-10-06 01:24:00+00:00,228.0,5.47,227.0,6.31,12.33,47.59359,-54.27349
2023-10-06 01:34:00+00:00,233.0,5.92,230.0,6.67,12.33,47.59359,-54.27349
2023-10-06 01:44:00+00:00,226.0,5.31,222.0,6.07,12.33,47.59359,-54.27349
2023-10-06 01:54:00+00:00,228.0,4.9,229.0,6.01,12.33,47.59359,-54.27349
2023-10-06 02:04:00+00:00,226.0,5.36,227.0,6.0,12.33,47.59359,-54.27349
2023-10-06 02:14:01+00:00,235.0,5.65,234.0,6.48,12.33,47.59359,-54.27349
2023-10-06 02:24:01+00:00,235.0,5.91,238.0,6.73,12.33,47.59359,-54.27349
2023-10-06 02:34:01+00:00,235.0,6.43,234.0,7.07,12.33,47.59359,-54.27349
2023-10-06 02:44:01+00:00,239.0,6.55,244.0,7.14,12.33,47.59359,-54.27349
2023-10-06 02:54:01+00:00,230.0,5.41,234.0,6.12,12.33,47.59359,-54.27349
2023-10-06 03:04:01+00:00,229.0,4.89,230.0,6.12,12.33,47.59359,-54.27349
2023-10-06 03:14:01+00:00,234.0,5.04,230.0,5.49,12.33,47.59359,-54.27349
2023-10-06 03:24:01+00:00,231.0,5.76,231.0,6.34,12.33,47.59359,-54.27349
2023-10-06 03:34:01+00:00,231.0,5.85,230.0,7.17,12.33,47.59359,-54.27349
2023-10-06 03:44:01+00:00,235.0,6.38,232.0,6.85,12.33,47.59359,-54.27349
2023-10-06 03:54:01+00:00,229.0,5.65,228.0,6.67,12.33,47.59359,-54.27349
2023-10-06 04:04:01+00:00,224.0,6.03,227.0,6.85,12.33,47.59359,-54.27349
2023-10-06 04:14:00+00:00,224.0,5.74,228.0,6.71,12.33,47.59359,-54.27349
2023-10-06 04:24:00+00:00,231.0,5.55,229.0,6.48,12.33,47.59359,-54.27349
2023-10-06 04:34:00+00:00,224.0,5.7,220.0,6.97,12.33,47.59359,-54.27349
2023-10-06 04:44:00+00:00,226.0,6.52,222.0,7.95,12.33,47.59359,-54.27349
2023-10-06 04:54:00+00:00,226.0,6.07,231.0,6.92,12.33,47.59359,-54.27349
2023-10-06 05:04:00+00:00,226.0,6.48,232.0,7.32,12.33,47.59359,-54.27349
2023-10-06 05:14:01+00:00,226.0,7.51,226.0,8.41,12.25,47.59359,-54.27349
2023-10-06 05:24:01+00:00,233.0,6.92,239.0,8.55,12.25,47.59359,-54.27349
2023-10-06 05:34:01+00:00,231.0,6.2,235.0,7.46,12.25,47.59359,-54.27349
2023-10-06 05:44:01+00:00,230.0,5.36,230.0,6.03,12.25,47.59359,-54.27349
2023-10-06 05:54:01+00:00,229.0,5.99,227.0,6.88,12.25,47.59359,-54.27349
2023-10-06 06:04:01+00:00,228.0,6.59,227.0,7.19,12.25,47.59359,-54.27349
2023-10-06 06:14:01+00:00,226.0,6.79,223.0,7.86,12.25,47.59359,-54.27349
2023-10-06 06:24:01+00:00,224.0,6.45,218.0,8.08,12.25,47.59359,-54.27349
2023-10-06 06:34:01+00:00,227.0,5.64,231.0,7.45,12.25,47.59359,-54.27349
2023-10-06 06:44:01+00:00,223.0,6.37,220.0,7.52,12.25,47.59359,-54.27349
2023-10-06 06:54:01+00:00,229.0,5.39,230.0,6.48,12.25,47.59359,-54.27349
2023-10-06 07:04:01+00:00,227.0,5.11,226.0,5.73,12.25,47.59359,-54.27349
2023-10-06 07:14:01+00:00,225.0,6.05,229.0,7.36,12.25,47.59359,-54.27349
2023-10-06 07:24:01+00:00,223.0,6.48,218.0,7.29,12.25,47.59359,-54.27349
2023-10-06 07:34:01+00:00,236.0,4.51,236.0,5.02,12.25,47.59359,-54.27349
2023-10-06 07:44:01+00:00,227.0,4.0,233.0,5.21,12.25,47.59359,-54.27349
2023-10-06 07:54:01+00:00,224.0,4.6,218.0,5.5,12.25,47.59359,-54.27349
2023-10-06 08:04:01+00:00,225.0,4.94,227.0,5.64,12.25,47.59359,-54.27349
2023-10-06 08:14:00+00:00,226.0,5.2,222.0,5.95,12.17,47.59359,-54.27349
2023-10-06 08:24:00+00:00,223.0,5.16,232.0,6.11,12.17,47.59359,-54.27349
2023-10-06 08:34:00+00:00,216.0,4.73,220.0,5.48,12.17,47.59359,-54.27349
2023-10-06 08:44:00+00:00,217.0,5.23,218.0,5.75,12.17,47.59359,-54.27349
2023-10-06 08:54:00+00:00,216.0,5.8,219.0,6.3,12.17,47.59359,-54.27349
2023-10-06 09:04:00+00:00,216.0,5.58,217.0,6.16,12.17,47.59359,-54.27349
2023-10-06 09:14:00+00:00,221.0,5.83,220.0,6.28,12.17,47.59359,-54.27349
2023-10-06 09:24:00+00:00,221.0,5.28,219.0,6.11,12.17,47.59359,-54.27349
2023-10-06 09:34:00+00:00,224.0,4.47,222.0,4.97,12.17,47.59359,-54.27349
2023-10-06 09:44:00+00:00,222.0,3.56,217.0,4.32,12.17,47.59359,-54.27349
2023-10-06 09:54:00+00:00,219.0,3.26,217.0,3.83,12.17,47.59359,-54.27349
2023-10-06 10:04:00+00:00,224.0,3.66,225.0,4.18,12.17,47.59359,-54.27349
2023-10-06 10:14:01+00:00,210.0,3.49,210.0,3.82,12.09,47.59359,-54.27349
2023-10-06 10:24:01+00:00,210.0,3.75,211.0,4.34,12.09,47.59359,-54.27349
2023-10-06 10:34:01+00:00,213.0,3.73,212.0,4.14,12.09,47.59359,-54.27349
2023-10-06 10:44:01+00:00,212.0,3.17,211.0,3.43,12.09,47.59359,-54.27349
2023-10-06 10:54:01+00:00,206.0,3.06,208.0,3.37,12.09,47.59359,-54.27349
2023-10-06 11:04:01+00:00,214.0,3.54,214.0,3.79,12.09,47.59359,-54.27349
2023-10-06 11:14:01+00:00,211.0,3.53,214.0,3.81,12.25,47.59359,-54.27349
2023-10-06 11:24:01+00:00,208.0,3.7,208.0,3.89,12.25,47.59359,-54.27349
2023-10-06 11:34:01+00:00,212.0,3.52,212.0,3.7,12.25,47.59359,-54.27349
2023-10-06 11:44:01+00:00,220.0,3.53,220.0,3.9,12.25,47.59359,-54.27349
2023-10-06 11:54:01+00:00,224.0,3.82,228.0,4.4,12.25,47.59359,-54.27349
2023-10-06 12:04:01+00:00,227.0,4.22,228.0,4.66,12.25,47.59359,-54.27349
2023-10-06 12:14:00+00:00,207.0,4.49,207.0,5.05,12.73,47.59359,-54.27349
2023-10-06 12:24:00+00:00,214.0,4.72,216.0,4.97,12.73,47.59359,-54.27349
2023-10-06 12:34:00+00:00,213.0,4.34,209.0,4.73,12.73,47.59359,-54.27349
2023-10-06 12:44:00+00:00,214.0,4.02,214.0,4.39,12.73,47.59359,-54.27349
2023-10-06 12:54:00+00:00,214.0,3.49,218.0,4.0,12.73,47.59359,-54.27349
2023-10-06 13:04:00+00:00,206.0,4.92,209.0,5.29,12.73,47.59359,-54.27349
2023-10-06 13:14:01+00:00,202.0,4.57,202.0,4.84,12.97,47.59359,-54.27349
2023-10-06 13:24:01+00:00,209.0,3.48,210.0,4.01,12.97,47.59359,-54.27349
2023-10-06 13:34:01+00:00,195.0,4.73,194.0,5.12,12.97,47.59359,-54.27349
2023-10-06 13:44:01+00:00,184.0,3.92,186.0,4.43,12.97,47.59359,-54.27349
2023-10-06 13:54:01+00:00,188.0,4.41,188.0,4.69,12.97,47.59359,-54.27349
2023-10-06 14:04:01+00:00,196.0,4.58,195.0,4.8,12.97,47.59359,-54.27349
2023-10-06 14:14:00+00:00,199.0,4.24,201.0,4.44,14.0,47.59359,-54.27349
2023-10-06 14:24:00+00:00,201.0,4.53,202.0,4.88,14.0,47.59359,-54.27349
2023-10-06 14:34:00+00:00,199.0,4.39,202.0,4.79,14.0,47.59359,-54.27349
2023-10-06 14:44:00+00:00,198.0,4.62,201.0,4.94,14.0,47.59359,-54.27349
2023-10-06 14:54:00+00:00,203.0,4.55,199.0,5.37,14.0,47.59359,-54.27349
2023-10-06 15:04:00+00:00,200.0,4.88,200.0,5.33,14.0,47.59359,-54.27349
2023-10-06 15:14:01+00:00,202.0,5.36,200.0,6.01,13.6,47.59359,-54.27349
2023-10-06 15:24:01+00:00,204.0,6.18,203.0,6.78,13.6,47.59359,-54.27349
2023-10-06 15:34:01+00:00,207.0,6.21,209.0,6.76,13.6,47.59359,-54.27349
2023-10-06 15:44:01+00:00,208.0,5.63,211.0,6.15,13.6,47.59359,-54.27349
2023-10-06 15:54:01+00:00,205.0,6.87,207.0,7.49,13.6,47.59359,-54.27349
2023-10-06 16:04:01+00:00,205.0,6.63,199.0,7.0,13.6,47.59359,-54.27349
2023-10-06 16:14:00+00:00,200.0,5.2,204.0,5.96,13.76,47.59359,-54.27349
2023-10-06 16:24:00+00:00,202.0,5.56,206.0,5.98,13.76,47.59359,-54.27349
2023-10-06 16:34:00+00:00,197.0,5.42,200.0,5.79,13.76,47.59359,-54.27349
2023-10-06 16:44:00+00:00,199.0,5.09,203.0,5.8,13.76,47.59359,-54.27349
2023-10-06 16:54:00+00:00,198.0,4.48,197.0,5.09,13.76,47.59359,-54.27349
2023-10-06 17:04:00+00:00,215.0,5.32,214.0,5.76,13.76,47.59359,-54.27349
2023-10-06 17:14:00+00:00,218.0,4.42,220.0,4.78,14.08,47.59359,-54.27349
2023-10-06 17:24:00+00:00,220.0,5.45,222.0,5.88,14.08,47.59359,-54.27349
2023-10-06 17:34:00+00:00,228.0,4.51,228.0,5.15,14.08,47.59359,-54.27349
2023-10-06 17:44:00+00:00,226.0,5.13,230.0,5.69,14.08,47.59359,-54.27349
2023-10-06 17:54:00+00:00,241.0,4.73,243.0,5.38,14.08,47.59359,-54.27349
2023-10-06 18:04:00+00:00,268.0,5.41,268.0,5.69,14.08,47.59359,-54.27349
2023-10-06 18:14:01+00:00,271.0,5.52,271.0,5.76,14.32,47.59359,-54.27349
2023-10-06 18:24:01+00:00,277.0,5.56,276.0,5.76,14.32,47.59359,-54.27349
2023-10-06 18:34:01+00:00,232.0,3.28,235.0,3.81,14.32,47.59359,-54.27349
2023-10-06 18:44:01+00:00,213.0,3.76,215.0,4.14,14.32,47.59359,-54.27349
2023-10-06 18:54:01+00:00,229.0,3.27,230.0,3.62,14.32,47.59359,-54.27349
2023-10-06 19:04:01+00:00,237.0,2.11,249.0,2.52,14.32,47.59359,-54.27349
2023-10-06 19:14:01+00:00,273.0,2.36,270.0,2.86,13.6,47.59359,-54.27349
2023-10-06 19:24:01+00:00,307.0,5.01,308.0,5.4,13.6,47.59359,-54.27349
2023-10-06 19:34:01+00:00,295.0,8.09,297.0,8.49,13.6,47.59359,-54.27349
2023-10-06 19:44:01+00:00,294.0,8.04,297.0,8.45,13.6,47.59359,-54.27349
2023-10-06 19:54:01+00:00,282.0,6.5,282.0,6.91,13.6,47.59359,-54.27349
2023-10-06 20:04:01+00:00,277.0,5.16,276.0,5.36,13.6,47.59359,-54.27349
2023-10-06 20:14:00+00:00,271.0,5.4,272.0,5.72,13.68,47.59359,-54.27349
2023-10-06 20:24:00+00:00,264.0,4.55,265.0,4.85,13.68,47.59359,-54.27349
2023-10-06 20:34:00+00:00,280.0,3.05,281.0,3.39,13.68,47.59359,-54.27349
2023-10-06 20:44:00+00:00,243.0,1.92,260.0,2.26,13.68,47.59359,-54.27349
2023-10-06 20:54:00+00:00,230.0,1.81,213.0,2.33,13.68,47.59359,-54.27349
2023-10-06 21:04:00+00:00,289.0,5.3,290.0,5.54,13.68,47.59359,-54.27349
2023-10-06 21:14:00+00:00,289.0,3.95,289.0,4.2,12.97,47.59359,-54.27349
2023-10-06 21:24:00+00:00,301.0,2.68,302.0,2.78,12.97,47.59359,-54.27349
2023-10-06 21:34:00+00:00,176.0,0.66,177.0,1.2,12.97,47.59359,-54.27349
2023-10-06 21:44:00+00:00,54.0,0.98,59.0,1.07,12.97,47.59359,-54.27349
2023-10-06 21:54:00+00:00,26.0,0.11,50.0,0.19,12.97,47.59359,-54.27349
2023-10-06 22:04:00+00:00,64.0,0.54,59.0,0.67,12.97,47.59359,-54.27349
2023-10-06 22:14:01+00:00,21.0,2.91,25.0,3.18,12.41,47.59359,-54.27349
2023-10-06 22:24:01+00:00,31.0,2.63,31.0,3.33,12.41,47.59359,-54.27349
2023-10-06 22:34:01+00:00,32.0,3.01,38.0,3.54,12.41,47.59359,-54.27349
2023-10-06 22:44:01+00:00,24.0,2.44,26.0,2.85,12.41,47.59359,-54.27349
2023-10-06 22:54:01+00:00,6.0,2.34,11.0,2.58,12.41,47.59359,-54.27349
2023-10-06 23:04:01+00:00,6.0,2.73,8.0,2.97,12.41,47.59359,-54.27349
2023-10-06 23:14:01+00:00,0.0,3.05,359.0,3.4,12.41,47.59359,-54.27349
2023-10-06 23:24:01+00:00,355.0,2.42,352.0,2.87,12.41,47.59359,-54.27349
2023-10-06 23:34:01+00:00,352.0,3.65,351.0,3.94,12.41,47.59359,-54.27349
2023-10-06 23:44:01+00:00,358.0,3.22,358.0,3.4,12.41,47.59359,-54.27349
2023-10-06 23:54:01+00:00,340.0,2.8,339.0,2.92,12.41,47.59359,-54.27349
